TimeIST,TemperatureF,Dew PointF,Humidity,Sea Level PressureIn,VisibilityMPH,Wind Direction,Wind SpeedMPH,Gust SpeedMPH,PrecipitationIn,Events,Conditions,WindDirDegrees,DateUTC
12:00 AM,46.4,37.4,71,29.95,6.2,West,11.5,-,N/A,,Mostly Cloudy,270,2013-05-12 23:00:00
12:30 AM,46.4,39.2,76,29.95,6.2,West,12.7,-,N/A,,Mostly Cloudy,270,2013-05-12 23:30:00
1:00 AM,46,36,60,29.99,19,West,17.9,,,,Partly Cloudy,280,2013-05-13 00:00:00
1:00 AM,46.4,37.4,71,29.95,6.2,West,18.4,-,N/A,,Mostly Cloudy,280,2013-05-13 00:00:00
1:30 AM,44.6,35.6,71,29.95,6.2,West,11.5,-,N/A,,Partly Cloudy,270,2013-05-13 00:30:00
2:00 AM,44.6,35.6,71,29.95,6.2,West,10.4,-,N/A,,Scattered Clouds,260,2013-05-13 01:00:00
2:30 AM,44.6,37.4,76,29.95,6.2,West,12.7,-,N/A,,Mostly Cloudy,260,2013-05-13 01:30:00
3:00 AM,42.8,37.4,81,29.95,6.2,WSW,9.2,-,N/A,,Scattered Clouds,250,2013-05-13 02:00:00
3:30 AM,42.8,37.4,81,29.95,6.2,WSW,8.1,-,N/A,,Scattered Clouds,250,2013-05-13 02:30:00
4:00 AM,42.8,37.4,81,29.95,6.2,WSW,9.2,-,N/A,,Scattered Clouds,250,2013-05-13 03:00:00
4:30 AM,42.8,37.4,81,29.95,6.2,WSW,6.9,-,N/A,,Mostly Cloudy,240,2013-05-13 03:30:00
5:00 AM,42.8,37.4,81,29.95,6.2,WSW,10.4,-,N/A,,Mostly Cloudy,250,2013-05-13 04:00:00
5:30 AM,42.8,39.2,87,29.95,6.2,WSW,12.7,-,N/A,,Mostly Cloudy,250,2013-05-13 04:30:00
6:00 AM,42.8,39.2,87,29.95,6.2,West,10.4,-,N/A,,Mostly Cloudy,260,2013-05-13 05:00:00
6:30 AM,42.8,37.4,81,29.95,6.2,West,12.7,-,N/A,,Mostly Cloudy,260,2013-05-13 05:30:00
7:00 AM,43,39,80,29.96,19,West,11.2,,,Rain,Light Rain Showers,260,2013-05-13 06:00:00
7:00 AM,42.8,39.2,87,29.95,6.2,West,11.5,-,N/A,,Mostly Cloudy,260,2013-05-13 06:00:00
7:30 AM,44.6,39.2,81,29.95,6.2,West,10.4,-,N/A,,Mostly Cloudy,260,2013-05-13 06:30:00
8:00 AM,44.6,39.2,81,29.95,6.2,West,13.8,-,N/A,,Mostly Cloudy,260,2013-05-13 07:00:00
8:30 AM,44.6,39.2,81,29.95,6.2,West,13.8,-,N/A,,Mostly Cloudy,260,2013-05-13 07:30:00
9:00 AM,44.6,41.0,87,29.95,6.2,West,10.4,-,N/A,,Mostly Cloudy,270,2013-05-13 08:00:00
9:30 AM,46.4,41.0,81,29.92,6.2,West,15.0,-,N/A,,Mostly Cloudy,260,2013-05-13 08:30:00
10:00 AM,42.8,39.2,87,29.92,6.2,West,20.7,33.4,N/A,Rain,Light Rain Showers,280,2013-05-13 09:00:00
10:30 AM,48.2,41.0,76,29.92,6.2,West,16.1,28.8,N/A,,Mostly Cloudy,270,2013-05-13 09:30:00
11:00 AM,48.2,39.2,71,29.92,6.2,WNW,20.7,-,N/A,,Scattered Clouds,290,2013-05-13 10:00:00
11:30 AM,50.0,39.2,66,29.92,6.2,West,16.1,-,N/A,,Mostly Cloudy,270,2013-05-13 10:30:00
12:00 PM,44.6,41.0,87,29.92,6.2,West,18.4,-,N/A,,Partly Cloudy,270,2013-05-13 11:00:00
12:30 PM,50.0,39.2,66,29.89,6.2,West,21.9,-,N/A,,Scattered Clouds,280,2013-05-13 11:30:00
1:00 PM,49,38,57,29.91,12,West,15.7,,,Rain,Light Rain Showers,270,2013-05-13 12:00:00
1:00 PM,48.2,39.2,71,29.89,6.2,West,15.0,-,N/A,Rain,Light Rain Showers,270,2013-05-13 12:00:00
1:30 PM,46.4,37.4,71,29.89,6.2,WNW,24.2,-,N/A,,Mostly Cloudy,290,2013-05-13 12:30:00
2:00 PM,48.2,39.2,71,29.89,6.2,WNW,24.2,40.3,N/A,Rain,Light Rain Showers,290,2013-05-13 13:00:00
2:30 PM,48.2,39.2,71,29.89,6.2,West,21.9,-,N/A,,Scattered Clouds,280,2013-05-13 13:30:00
3:00 PM,46.4,41.0,81,29.89,6.2,WNW,25.3,43.7,N/A,,Mostly Cloudy,290,2013-05-13 14:00:00
3:30 PM,50.0,37.4,62,29.86,6.2,WNW,25.3,39.1,N/A,,Scattered Clouds,290,2013-05-13 14:30:00
4:00 PM,50.0,37.4,62,29.89,6.2,WNW,29.9,-,N/A,,Scattered Clouds,290,2013-05-13 15:00:00
4:30 PM,51.8,35.6,54,29.86,6.2,West,26.5,39.1,N/A,,Mostly Cloudy,280,2013-05-13 15:30:00
5:00 PM,50.0,35.6,58,29.89,6.2,West,24.2,-,N/A,,Mostly Cloudy,280,2013-05-13 16:00:00
5:30 PM,48.2,37.4,66,29.89,6.2,WNW,24.2,-,N/A,,Scattered Clouds,290,2013-05-13 16:30:00
6:00 PM,48.2,37.4,66,29.86,6.2,WNW,18.4,-,N/A,,Mostly Cloudy,290,2013-05-13 17:00:00
6:30 PM,46.4,39.2,76,29.89,6.2,WNW,21.9,-,N/A,,Scattered Clouds,290,2013-05-13 17:30:00
7:00 PM,47,38,61,29.89,19,West,17.9,,,Rain,Light Rain Showers,280,2013-05-13 18:00:00
7:00 PM,48.2,37.4,66,29.86,6.2,West,18.4,-,N/A,,Mostly Cloudy,280,2013-05-13 18:00:00
7:30 PM,48.2,37.4,66,29.86,6.2,West,18.4,-,N/A,,Mostly Cloudy,280,2013-05-13 18:30:00
8:00 PM,44.6,39.2,81,29.86,6.2,WNW,15.0,-,N/A,,Mostly Cloudy,290,2013-05-13 19:00:00
8:30 PM,44.6,39.2,81,29.89,6.2,West,15.0,-,N/A,Rain,Light Rain Showers,280,2013-05-13 19:30:00
9:30 PM,42.8,37.4,81,29.86,6.2,West,12.7,-,N/A,,Mostly Cloudy,260,2013-05-13 20:30:00
10:00 PM,42.8,37.4,81,29.86,6.2,West,15.0,-,N/A,,Mostly Cloudy,260,2013-05-13 21:00:00
10:30 PM,42.8,37.4,81,29.86,6.2,WSW,9.2,-,N/A,,Mostly Cloudy,240,2013-05-13 21:30:00
11:00 PM,41.0,37.4,87,29.86,6.2,SSW,8.1,-,N/A,,Mostly Cloudy,210,2013-05-13 22:00:00
11:30 PM,41.0,39.2,93,29.83,6.2,WSW,10.4,-,N/A,,Mostly Cloudy,240,2013-05-13 22:30:00